Regional Weather Roundup
Issued by NWS

Home | Current Version | Previous Version | Graphics & Text | Print | Product List | Glossary On
Versions: 1 2 3 4 5 6 7 8 9 10 11 12 13 14 15 16 17 18 19 20 21 22 23 24 25 26 27 28 29 30 31 32 33 34 35 36 37 38 39 40 41 42 43 44 45 46 47 48 49 50
000
ASUS43 KLOT 210404
RWRIL

ILLINOIS REGIONAL WEATHER ROUNDUP
NATIONAL WEATHER SERVICE CHICAGO/ROMEOVILLE IL
1100 PM CDT THU JUL 20 2017

NOTE: "FAIR" INDICATES FEW OR NO CLOUDS BELOW 12,000 FEET WITH NO
SIGNIFICANT WEATHER AND/OR OBSTRUCTIONS TO VISIBILITY.

* THESE STATIONS ARE NOT UNDER NWS QUALITY CONTROL. THEY ALSO MAY NOT
  REPORT WEATHER SUCH AS PRECIPITATION OR FOG.

ILZ001-002-007-009-015-016-024-210500-
NORTHWEST ILLINOIS

CITY           SKY/WX    TMP DP  RH WIND       PRES   REMARKS
MOLINE         TSTM      73  68  84 E15       29.93F
STERLING*      PTCLDY    77  77 100 CALM      29.95F FOG
SAVANNA*       PTCLDY    77  77  98 CALM      29.98R
$$

ILZ003-004-008-010-011-017-018-210500-
NORTH CENTRAL ILLINOIS

CITY           SKY/WX    TMP DP  RH WIND       PRES   REMARKS
ROCKFORD       PTCLDY    80  74  81 NE3       29.98R HX  85
FREEPORT*      CLEAR     74  73  99 CALM      29.99F
ROCHELLE*      CLEAR     74  73  99 CALM      29.97F FOG
DE KALB*       CLEAR     75  74  97 E5        29.99S
PERU*          CLOUDY    79  76  88 E3        29.96F HX  84
$$

ILZ005-006-012>014-019>023-210500-
NORTHEAST ILLINOIS

CITY           SKY/WX    TMP DP  RH WIND       PRES   REMARKS
CHICAGO-OHARE  PTCLDY    76  69  79 CALM      29.97S
CHICAGO-MIDWAY PTCLDY    79  69  71 E6        29.96S HX  81
AURORA         CLEAR     77  73  87 E5        29.97R
LANSING*       CLEAR     76  68  77 NE3       29.97R
JOLIET*        CLEAR     79  74  86 CALM      29.97R HX  82
WAUKEGAN       CLEAR     70  70 100 CALM      29.97R
DUPAGE AIRPORT CLEAR     76  72  87 E5        29.97S
WHEELING       MOCLDY    75  73  93 CALM      29.99R
MORRIS*        CLEAR     79  76  92 E5        29.95S HX  82
ROMEOVILLE*    CLEAR     75  70  84 NE5       29.98R
NORTHERLY ISL    N/A     73  69  87 CALM        N/A
$$

LMZ740>746-210500-
SOUTHERN LAKE MICHIGAN

STATION/POSITION SKY/WX   TEMP    WIND        PRES    VSBY  WAVE
                          AIR SEA DIR/SP/G                  HT/PER
                          (F)     (DEG/KT/KT) (MB)    (MI)  (FT/S)
SOUTHERN BUOY              72 71  250/  4/  4 1014.4          1
WILMETTE HARBOR            73 72  200/  4/  4   N/A           1
HARRISON CRIB              77     180/  4/  4   N/A
BURNHAM HARBOR             73                   N/A
CALUMET HARBOR             74      CALM  /  1 1014.3S
BURNS HARBOR               76      70/  6/  6 1015.2S
MICHIGAN CITY              77      70/  3/  4   N/A
MICHIGAN CITY 6N           75 74  120/  2/  2   N/A           0
ST. JOSEPH                 74 76     CALM     1014.2F         0
$$

ILZ025>027-034>036-040-047-049-050-058-095>099-210500-
WEST-CENTRAL ILLINOIS

CITY           SKY/WX    TMP DP  RH WIND       PRES   REMARKS
QUINCY         CLEAR     83  75  77 S5        29.95S HX  90
GALESBURG*     LGT RAIN  81  78  90 NE7       29.96S HX  89
MACOMB*        CLOUDY    82  77  83 NW7       29.97F HX  90
JACKSONVILLE*  CLOUDY    83  74  75 CALM      29.95S HX  89
PITTSFIELD*    CLEAR     83  75  76 SW3       29.97S HX  90
$$

ILZ028>032-037-038-041>044-048-051>054-059>061-210500-
CENTRAL ILLINOIS

CITY           SKY/WX    TMP DP  RH WIND       PRES   REMARKS
PONTIAC        MOCLDY    79  79  98 CALM      29.97S FOG     HX  85
BLOOMINGTON    CLOUDY    81  79  94 E8        29.98R HX  90
DECATUR        CLOUDY    81  74  79 SW7       29.97R HX  86
PEORIA         CLOUDY    85  80  85 E6        29.95R HX  99
LACON*         CLOUDY    81  78  92 SE3       29.95S HX  89
LINCOLN*       CLOUDY    85  80  86 CALM      29.95S HX  99
SPRINGFIELD    CLOUDY    82  78  88 SW5       29.95R HX  91
TAYLORVILLE    CLEAR     81  75  81 SW7       29.97R HX  87
$$

ILZ033-039-045-046-055>057-062-063-210500-
EAST-CENTRAL ILLINOIS

CITY           SKY/WX    TMP DP  RH WIND       PRES   REMARKS
CHAMPAIGN      CLEAR     79  75  89 S6        29.97  HX  82
RANTOUL*       CLOUDY    84  80  88 NE3       29.97S HX  96
MATTOON        CLEAR     82  74  76 S3        29.97S HX  88
PARIS*         CLEAR     76  75  96 S3        29.98S
$$

ILZ079-100>102-210500-
SOUTHWEST ILLINOIS

CITY           SKY/WX    TMP DP  RH WIND       PRES   REMARKS
ALTON          CLEAR     80  75  84 SE3       29.97S HX  84
BELLEVILLE     CLEAR     83  75  76 SW5       29.98R HX  90
CAHOKIA*       CLEAR     85  73  67 S5        29.96R HX  91
SPARTA*        CLEAR     84  76  77 S8        29.99S HX  92
$$

ILZ064>066-069>071-074>076-080>082-084>086-088>090-092>094-210500-
SOUTH-CENTRAL ILLINOIS

CITY           SKY/WX    TMP DP  RH WIND       PRES   REMARKS
CARBONDALE     CLOUDY    79  78  97 S3        29.99S HX  83
CAIRO*         PTCLDY    82  76  82 S6        30.00S HX  90
EFFINGHAM*     CLOUDY    83  74  74 S5        29.99F HX  89
MARION         CLOUDY    82  77  83 S3        30.00F HX  91
MT. VERNON     CLOUDY    77  75  93 CALM      29.99S
CENTRALIA*     PTCLDY    80  76  88 CALM      29.98S HX  86
SALEM*         CLOUDY    83  74  76 S3        29.99R HX  89
METROPOLIS*    CLEAR     82  76  84 S3        30.01S HX  89
$$

ILZ067-068-072-073-078-083-087-091-210500-
SOUTHEAST ILLINOIS

CITY           SKY/WX    TMP DP  RH WIND       PRES   REMARKS
LAWRENCEVILLE  PTCLDY    79  75  87 SW3       29.99S HX  83
FLORA*         CLEAR     79  74  86 S5        29.99S HX  82
FAIRFIELD*     CLEAR     80  76  87 CALM      29.99S HX  84
HARRISBURG*    CLEAR     78  76  94 CALM      30.00S HX  80
ROBINSON*      CLOUDY    77  74  91 S6        29.99S
CARMI*         CLEAR     76  75  96 S3        29.99F
$$

ABBREVIATIONS USED IN REMARKS
   TC - TEMPERATURE IN CELSIUS
  WCI - WIND CHILL INDEX
   HX - HEAT INDEX
  VSB - VISIBILITY
$$




USA.gov is the U.S. government's official web portal to all federal, state and local government web resources and services.